Temp
-22 -22 -22 -22 -22 -22 -22 -21 -21 -21 -21 -22 -22 -22 -22 -22 -22 -23 -22 -22 -22 -22 -21 -21 -20 -20 -20 -19 -19 -19 -19 -19 -19 -19 -18 -18 -18 -17 -17 -17 -17 -17 -17 -17
-22 -23 -23 -23 -22 -22 -22 -21 -21 -22 -22 -22 -22 -22 -22 -22 -23 -23 -22 -22 -22 -22 -22 -21 -21 -21 -20 -20 -20 -19 -19 -18 -18 -18 -18 -18 -18 -18 -18 -17 -17 -17 -17 -18
-23 -23 -24 -23 -22 -22 -22 -22 -22 -22 -22 -22 -22 -22 -22 -22 -23 -23 -22 -22 -22 -22 -22 -22 -21 -21 -21 -20 -20 -20 -19 -19 -19 -19 -19 -19 -19 -19 -18 -18 -18 -17 -17 -17
-24 -24 -24 -23 -23 -23 -22 -22 -23 -22 -22 -23 -22 -22 -22 -22 -23 -22 -22 -23 -23 -23 -23 -23 -23 -23 -23 -22 -22 -21 -21 -21 -21 -21 -21 -21 -20 -20 -20 -19 -19 -18 -17 -17
-25 -24 -24 -23 -23 -23 -23 -23 -23 -23 -23 -23 -23 -23 -23 -23 -23 -23 -23 -23 -23 -24 -24 -24 -24 -24 -25 -25 -25 -24 -24 -24 -24 -24 -24 -23 -23 -23 -23 -22 -22 -21 -20 -20
-25 -24 -24 -23 -23 -24 -23 -22 -23 -23 -23 -23 -23 -23 -23 -23 -23 -23 -23 -24 -24 -24 -25 -24 -25 -25 -25 -25 -25 -25 -24 -24 -24 -24 -23 -23 -23 -23 -23 -23 -22 -22 -22 -22
-25 -25 -24 -24 -24 -24 -23 -23 -23 -23 -23 -23 -23 -23 -23 -23 -23 -24 -24 -24 -24 -24 -24 -24 -24 -24 -24 -25 -25 -25 -25 -24 -24 -25 -25 -24 -24 -24 -24 -24 -23 -23 -23 -22
-25 -25 -24 -25 -24 -24 -24 -24 -24 -24 -23 -23 -23 -23 -23 -24 -24 -24 -24 -24 -24 -24 -25 -24 -24 -24 -24 -24 -25 -25 -25 -25 -25 -25 -25 -24 -24 -24 -24 -24 -24 -24 -23 -23
-25 -25 -25 -25 -24 -24 -24 -24 -24 -24 -24 -23 -24 -24 -24 -24 -24 -24 -24 -24 -24 -24 -24 -24 -24 -25 -25 -25 -25 -25 -26 -25 -25 -25 -25 -24 -24 -24 -24 -24 -23 -23 -23 -23
-25 -25 -25 -25 -25 -25 -24 -24 -24 -24 -24 -24 -24 -24 -24 -24 -24 -24 -24 -24 -24 -24 -24 -25 -25 -25 -25 -25 -26 -26 -25 -25 -25 -24 -24 -24 -24 -24 -24 -24 -24 -23 -23 -23
-25 -25 -25 -25 -25 -25 -24 -24 -24 -24 -24 -24 -24 -24 -24 -24 -24 -24 -24 -24 -24 -24 -24 -25 -25 -25 -25 -26 -25 -25 -25 -25 -24 -24 -24 -24 -24 -24 -24 -24 -23 -23 -23 -23
-25 -25 -25 -24 -24 -25 -24 -24 -24 -24 -25 -24 -24 -24 -24 -24 -24 -24 -24 -24 -25 -25 -25 -25 -25 -25 -25 -25 -25 -25 -25 -25 -25 -24 -24 -24 -24 -24 -23 -23 -23 -23 -23 -22
-25 -25 -25 -25 -25 -24 -25 -25 -25 -25 -25 -25 -25 -24 -24 -24 -24 -24 -24 -25 -25 -25 -26 -26 -25 -25 -25 -25 -25 -25 -25 -25 -25 -24 -24 -24 -24 -24 -23 -23 -23 -23 -23 -23
-26 -26 -25 -25 -25 -25 -25 -25 -25 -25 -25 -25 -25 -25 -25 -25 -25 -25 -25 -25 -25 -25 -25 -25 -25 -25 -25 -25 -25 -25 -25 -25 -25 -25 -24 -24 -24 -24 -24 -23 -23 -23 -23 -23
-26 -25 -25 -25 -25 -25 -25 -25 -25 -25 -25 -25 -25 -25 -25 -25 -26 -26 -26 -25 -25 -25 -25 -26 -25 -25 -25 -25 -25 -26 -25 -25 -25 -25 -24 -24 -24 -24 -23 -23 -23 -23 -23 -23
-26 -25 -25 -25 -25 -25 -25 -25 -25 -25 -26 -25 -25 -26 -26 -26 -26 -26 -26 -25 -25 -25 -26 -26 -25 -25 -26 -26 -26 -26 -25 -25 -25 -25 -25 -24 -24 -24 -24 -23 -23 -24 -24 -24
-25 -25 -25 -25 -25 -25 -26 -26 -26 -26 -26 -26 -26 -26 -26 -26 -26 -26 -26 -25 -25 -25 -26 -26 -25 -26 -26 -26 -26 -26 -25 -25 -25 -25 -25 -25 -24 -24 -24 -24 -24 -24 -24 -24
-26 -26 -26 -26 -26 -26 -26 -26 -26 -26 -26 -26 -26 -26 -26 -26 -26 -26 -26 -26 -26 -26 -26 -26 -26 -26 -26 -26 -26 -26 -25 -25 -25 -25 -25 -25 -25 -24 -24 -24 -24 -25 -25 -25
-26 -26 -26 -26 -26 -26 -26 -26 -26 -26 -26 -26 -26 -26 -26 -26 -26 -26 -26 -26 -26 -26 -26 -26 -26 -26 -26 -26 -26 -26 -26 -25 -25 -25 -25 -25 -25 -25 -24 -25 -25 -25 -25 -25
-26 -26 -27 -26 -26 -26 -26 -26 -26 -26 -27 -27 -26 -27 -27 -26 -26 -27 -27 -26 -26 -26 -26 -26 -26 -26 -26 -26 -26 -26 -26 -26 -26 -25 -25 -25 -25 -25 -25 -25 -25 -25 -25 -25
-27 -27 -27 -27 -27 -27 -28 -28 -27 -27 -27 -27 -27 -27 -27 -27 -27 -27 -27 -27 -27 -27 -27 -26 -26 -26 -26 -26 -26 -26 -26 -26 -26 -25 -25 -25 -25 -25 -25 -25 -26 -26 -26 -26
-28 -28 -28 -29 -30 -30 -30 -29 -29 -29 -29 -28 -28 -27 -27 -27 -27 -27 -27 -27 -27 -27 -27 -27 -26 -26 -26 -27 -27 -26 -27 -26 -26 -25 -25 -25 -25 -26 -26 -26 -26 -26 -26 -27
-29 -30 -30 -31 -31 -31 -31 -30 -30 -29 -29 -28 -28 -28 -28 -27 -27 -27 -27 -27 -27 -27 -27 -27 -27 -26 -27 -27 -27 -27 -27 -26 -26 -26 -26 -26 -26 -26 -26 -26 -27 -27 -28 -29
-29 -30 -30 -30 -31 -31 -30 -30 -29 -29 -29 -28 -28 -28 -28 -28 -28 -28 -27 -27 -27 -27 -27 -27 -27 -27 -27 -27 -27 -27 -26 -26 -26 -26 -26 -26 -26 -26 -27 -27 -28 -29 -29 -30
-29 -29 -29 -29 -30 -30 -29 -29 -29 -29 -29 -28 -28 -28 -28 -28 -28 -28 -28 -27 -27 -27 -27 -27 -27 -27 -27 -27 -27 -27 -27 -27 -26 -27 -27 -27 -27 -27 -28 -29 -29 -30 -30 -32
-29 -29 -29 -29 -29 -29 -29 -29 -29 -29 -29 -28 -28 -28 -28 -28 -28 -28 -28 -28 -28 -28 -28 -27 -28 -28 -28 -27 -27 -27 -27 -27 -27 -27 -27 -27 -28 -28 -29 -30 -30 -31 -33 -34
-29 -29 -29 -29 -29 -29 -29 -29 -29 -29 -29 -29 -29 -29 -28 -28 -28 -28 -28 -28 -28 -28 -28 -28 -28 -28 -28 -28 -28 -27 -27 -28 -28 -28 -28 -28 -29 -30 -30 -31 -32 -33 -34 -35
Height
5580 5580 5580 5581 5583 5584 5583 5586 5583 5585 5586 5586 5586 5586 5584 5582 5580 5578 5578 5576 5575 5571 5569 5568 5566 5565 5565 5564 5562 5561 5562 5563 5565 5566 5566 5565 5562 5562 5562 5561 5561 5561 5560 5560
5568 5570 5568 5568 5572 5572 5574 5576 5575 5574 5575 5578 5577 5576 5575 5573 5572 5571 5570 5568 5566 5563 5560 5558 5557 5554 5553 5552 5552 5552 5553 5555 5555 5553 5553 5552 5551 5551 5552 5551 5551 5552 5551 5551
5557 5558 5556 5555 5566 5564 5564 5564 5566 5565 5569 5567 5568 5567 5565 5564 5563 5562 5561 5559 5556 5553 5550 5548 5547 5545 5543 5541 5541 5542 5542 5541 5541 5540 5541 5541 5541 5541 5541 5541 5540 5539 5539 5539
5545 5547 5543 5549 5554 5555 5553 5554 5555 5556 5556 5557 5558 5557 5556 5556 5555 5553 5552 5550 5548 5546 5543 5540 5538 5536 5533 5531 5529 5528 5529 5530 5530 5531 5532 5531 5531 5531 5531 5529 5526 5528 5529 5527
5534 5534 5536 5540 5543 5544 5543 5545 5545 5546 5547 5548 5548 5546 5547 5547 5546 5545 5544 5542 5540 5538 5535 5533 5531 5529 5527 5524 5523 5522 5522 5524 5525 5525 5527 5527 5527 5526 5524 5523 5522 5520 5519 5518
5525 5525 5526 5532 5533 5532 5532 5533 5537 5537 5537 5537 5538 5539 5539 5538 5538 5537 5535 5534 5533 5532 5530 5528 5526 5524 5522 5522 5520 5520 5521 5522 5523 5523 5523 5523 5523 5523 5522 5520 5519 5517 5515 5511
5517 5517 5518 5522 5523 5523 5524 5532 5527 5527 5529 5530 5531 5532 5531 5531 5530 5529 5529 5528 5528 5527 5525 5524 5522 5521 5520 5520 5520 5519 5519 5520 5520 5521 5521 5522 5522 5522 5521 5518 5515 5513 5510 5508
5511 5510 5512 5516 5516 5516 5518 5518 5520 5521 5523 5524 5524 5524 5524 5523 5523 5523 5523 5523 5522 5522 5521 5521 5521 5520 5520 5520 5520 5520 5521 5521 5522 5522 5522 5522 5521 5520 5518 5516 5514 5512 5509 5506
5504 5506 5506 5506 5508 5509 5511 5512 5514 5515 5517 5518 5518 5517 5517 5518 5518 5518 5518 5519 5520 5520 5520 5520 5520 5520 5521 5521 5521 5520 5521 5522 5522 5522 5522 5521 5520 5518 5516 5513 5511 5509 5506 5504
5495 5498 5499 5500 5501 5503 5505 5506 5508 5511 5512 5512 5512 5513 5513 5512 5512 5513 5515 5516 5517 5518 5518 5519 5520 5520 5520 5521 5521 5521 5521 5522 5521 5521 5521 5519 5517 5515 5513 5510 5508 5505 5503 5500
5488 5490 5491 5493 5495 5497 5499 5502 5503 5505 5507 5508 5509 5509 5509 5508 5508 5510 5512 5514 5515 5516 5518 5519 5520 5520 5521 5521 5521 5521 5520 5520 5520 5520 5518 5516 5514 5511 5509 5507 5504 5502 5499 5497
5482 5483 5486 5487 5489 5492 5495 5497 5499 5501 5503 5504 5505 5506 5505 5506 5507 5509 5510 5512 5514 5515 5517 5518 5519 5519 5520 5520 5520 5519 5519 5519 5518 5516 5514 5512 5510 5507 5505 5502 5499 5496 5493 5490
5477 5478 5481 5483 5486 5488 5490 5493 5495 5497 5498 5500 5502 5503 5503 5504 5506 5508 5509 5511 5513 5514 5515 5517 5517 5517 5518 5518 5517 5517 5516 5516 5514 5512 5510 5508 5505 5502 5499 5495 5492 5489 5486 5482
5472 5474 5477 5479 5481 5484 5486 5489 5491 5492 5494 5496 5498 5499 5501 5503 5505 5506 5508 5509 5510 5512 5513 5514 5515 5516 5515 5516 5515 5514 5513 5511 5510 5508 5505 5502 5499 5496 5492 5489 5485 5482 5478 5473
5469 5471 5474 5476 5478 5481 5483 5485 5486 5488 5490 5492 5494 5495 5497 5499 5501 5503 5505 5507 5508 5509 5511 5512 5513 5513 5512 5512 5511 5510 5509 5507 5504 5501 5498 5495 5492 5489 5485 5481 5476 5471 5466 5462
5467 5468 5470 5472 5474 5477 5479 5481 5482 5484 5486 5488 5490 5492 5493 5496 5498 5500 5502 5504 5506 5506 5508 5509 5509 5509 5508 5508 5507 5505 5503 5500 5498 5495 5492 5488 5484 5480 5476 5471 5466 5461 5455 5450
5464 5466 5467 5468 5470 5472 5474 5476 5478 5480 5482 5484 5486 5488 5490 5493 5495 5497 5499 5501 5502 5503 5504 5504 5504 5504 5504 5503 5501 5499 5497 5494 5491 5487 5483 5480 5475 5471 5466 5461 5455 5449 5443 5437
5460 5461 5463 5464 5465 5467 5469 5471 5473 5475 5477 5480 5482 5484 5486 5489 5491 5493 5495 5496 5497 5498 5499 5499 5499 5499 5498 5497 5495 5492 5489 5486 5483 5479 5475 5471 5466 5461 5455 5449 5443 5436 5429 5422
5454 5454 5455 5457 5458 5460 5462 5464 5467 5469 5472 5474 5477 5479 5482 5484 5486 5488 5490 5491 5492 5493 5493 5493 5493 5492 5491 5490 5487 5484 5481 5478 5474 5470 5466 5461 5456 5450 5443 5437 5429 5422 5414 5406
5445 5445 5445 5446 5447 5450 5452 5455 5458 5461 5464 5467 5470 5473 5475 5478 5480 5482 5484 5486 5487 5487 5486 5487 5486 5485 5484 5482 5479 5476 5473 5469 5465 5461 5456 5451 5444 5438 5431 5423 5415 5407 5398 5389
5437 5437 5436 5434 5435 5436 5439 5443 5448 5452 5456 5459 5463 5466 5469 5471 5473 5475 5477 5479 5480 5480 5480 5480 5479 5479 5477 5474 5471 5468 5464 5460 5455 5450 5445 5438 5432 5424 5417 5408 5400 5391 5381 5371
5431 5428 5424 5420 5420 5424 5429 5434 5439 5444 5448 5452 5456 5459 5462 5464 5467 5469 5471 5472 5473 5473 5474 5473 5472 5470 5468 5465 5462 5459 5454 5449 5445 5439 5433 5426 5419 5411 5402 5393 5384 5374 5364 5353
5427 5424 5421 5419 5419 5422 5425 5429 5434 5439 5443 5447 5449 5452 5456 5458 5460 5463 5464 5466 5466 5466 5466 5465 5464 5462 5459 5456 5453 5449 5444 5439 5433 5427 5420 5413 5405 5396 5387 5378 5368 5357 5346 5335
5426 5425 5423 5422 5422 5423 5426 5428 5432 5435 5439 5442 5445 5447 5450 5452 5455 5456 5458 5459 5459 5459 5458 5457 5455 5453 5450 5447 5443 5438 5433 5428 5422 5415 5408 5399 5391 5382 5372 5362 5351 5340 5329 5317
5426 5426 5425 5424 5424 5425 5426 5428 5431 5433 5436 5438 5441 5443 5445 5447 5450 5451 5452 5452 5452 5451 5450 5448 5446 5444 5441 5437 5432 5427 5422 5416 5409 5402 5394 5385 5376 5367 5357 5346 5335 5324 5312 5301
5426 5426 5425 5425 5425 5425 5426 5428 5429 5432 5433 5435 5437 5439 5441 5443 5444 5445 5445 5445 5444 5443 5441 5440 5438 5435 5431 5426 5421 5416 5410 5403 5397 5389 5381 5372 5362 5352 5342 5331 5320 5308 5297 5286
5424 5424 5424 5424 5424 5424 5425 5426 5427 5428 5430 5431 5432 5434 5435 5437 5437 5438 5437 5437 5436 5435 5433 5431 5428 5424 5420 5415 5410 5404 5398 5391 5384 5376 5367 5358 5348 5338 5328 5316 5305 5294 5284 5274
Wind_Speed
46 47 47 44 44 42 46 37 40 42 43 33 31 31 33 30 33 32 34 35 36 37 37 35 35 37 37 38 37 36 38 39 41 41 43 44 44 45 46 44 44 40 40 36
51 48 49 48 45 47 43 39 38 30 38 35 31 35 34 32 32 35 37 39 39 38 36 35 35 34 34 33 33 34 35 39 41 40 42 45 41 40 45 46 46 43 42 37
48 47 48 51 45 48 44 41 42 46 35 35 34 37 34 33 36 37 36 38 36 34 36 37 37 36 34 34 32 31 31 32 33 32 33 34 36 39 40 41 41 43 41 38
49 47 50 49 42 41 42 41 41 40 33 33 37 36 34 35 36 36 36 35 34 33 32 31 30 29 27 30 30 30 29 26 21 20 21 21 25 27 29 31 33 41 45 44
49 50 51 45 44 40 39 39 39 39 42 41 38 34 34 35 36 35 34 32 30 24 23 22 21 19 19 17 13 11 8 4 2 4 7 8 11 13 16 19 21 25 29 29
44 44 46 43 38 36 36 37 35 34 32 31 30 30 33 33 32 30 29 28 23 20 22 20 14 11 9 9 5 2 4 3 8 12 9 7 7 8 8 6 7 8 12 17
33 36 40 34 32 32 33 26 28 27 26 26 28 30 29 28 26 26 25 22 20 21 19 14 12 9 7 4 1 1 3 7 7 4 3 2 6 5 7 9 11 13 14 13
33 35 36 29 28 28 25 25 25 24 24 25 26 26 25 24 21 19 19 19 16 14 9 9 8 7 5 3 3 5 6 7 7 6 5 5 5 6 8 9 11 13 14 15
33 34 30 28 26 22 21 22 21 21 22 23 21 22 19 18 19 18 15 11 11 7 8 10 7 3 1 3 7 10 8 4 3 3 3 5 8 11 12 13 13 13 13 15
34 30 27 27 26 22 20 21 21 19 18 18 17 15 17 21 19 15 12 11 10 9 7 4 3 6 6 5 4 2 2 2 1 2 5 9 12 13 14 14 16 16 16 16
27 25 25 26 26 25 23 18 18 15 15 13 12 13 15 12 10 10 10 12 9 9 8 6 5 3 1 2 3 3 3 4 5 7 11 13 15 15 16 16 17 19 20 21
21 24 24 24 24 22 19 18 15 15 14 11 11 10 8 9 10 10 9 10 10 9 10 7 4 4 4 5 5 7 8 8 10 12 15 17 19 18 17 18 19 21 22 25
19 21 20 18 17 17 18 17 16 14 14 11 12 8 8 9 10 11 10 11 12 11 8 6 7 8 8 8 9 10 11 12 14 16 19 21 22 22 24 24 24 24 28 30
17 17 16 18 18 19 18 17 16 14 14 14 14 12 14 13 13 13 13 13 12 9 9 8 10 11 11 12 12 12 15 16 17 19 21 22 24 27 28 28 29 30 32 34
14 15 17 17 18 19 19 18 17 15 14 15 14 13 15 16 14 15 15 13 11 10 11 12 12 13 14 14 15 18 19 21 22 23 24 25 28 30 32 35 36 37 39 41
14 16 15 16 17 19 20 19 18 16 15 14 13 14 14 16 17 16 15 15 13 12 13 14 14 16 16 17 19 21 23 24 26 27 29 30 32 36 38 40 40 41 42 45
14 15 16 17 18 19 21 21 19 17 16 15 15 16 17 18 18 18 18 16 15 14 16 18 17 17 18 20 22 24 25 27 28 31 33 36 38 41 43 43 43 45 48 51
17 18 19 20 20 20 21 22 23 23 20 19 18 19 19 20 21 20 21 19 17 16 18 19 20 21 22 23 25 26 27 30 32 35 39 41 44 46 46 46 47 50 53 56
23 25 26 27 27 27 27 26 25 27 27 24 23 21 21 22 24 23 22 22 21 21 20 20 21 24 26 29 28 29 32 34 36 39 43 45 47 48 49 50 53 54 59 62
24 24 26 28 29 31 33 33 31 30 30 30 27 26 25 25 27 26 25 25 25 23 21 23 24 26 29 31 31 33 36 38 40 44 47 48 51 52 52 54 55 60 64 67
21 24 28 32 34 35 34 36 35 34 32 30 30 28 26 24 28 29 27 27 26 24 24 24 26 29 31 33 34 37 40 42 44 47 50 52 55 55 55 58 60 66 70 72
20 25 26 22 22 26 29 31 32 30 30 28 27 26 26 24 24 29 31 29 27 26 26 25 27 31 33 35 37 40 42 44 48 50 52 55 57 57 59 62 67 71 73 74
11 10 10 4 6 12 16 20 24 24 25 25 25 24 23 22 21 24 27 28 29 28 27 28 30 34 36 38 40 42 44 47 51 53 56 58 57 60 63 68 70 72 73 73
2 8 4 0 2 10 13 14 17 20 22 22 21 21 20 19 19 21 25 27 27 28 30 30 33 36 38 40 42 44 47 50 53 56 58 58 60 63 67 69 71 71 73 73
3 4 3 2 4 5 10 11 16 16 18 19 19 19 17 18 19 22 24 27 29 30 30 32 34 36 40 41 43 46 49 52 55 57 58 60 62 65 68 69 70 71 71 68
7 7 4 5 6 7 9 12 15 16 17 18 19 21 22 22 23 25 27 28 28 29 31 33 35 38 39 42 45 48 51 54 56 57 59 61 64 66 67 69 69 68 65 60
8 8 7 7 7 8 11 13 15 18 19 20 21 22 22 23 25 27 28 27 28 30 32 35 37 38 41 44 47 50 53 54 55 57 60 62 64 65 67 67 65 61 57 56
Wind_Direction
259 261 263 266 267 267 265 274 274 264 272 272 282 287 290 281 281 283 283 289 291 291 294 294 290 288 286 286 288 285 280 280 278 276 281 285 289 292 295 300 303 297 296 287
257 264 263 261 261 267 268 272 258 268 280 277 283 283 288 283 281 283 285 290 294 296 295 295 294 291 288 284 279 277 274 270 272 277 281 284 288 287 288 292 295 288 291 284
261 262 264 262 262 271 275 269 261 264 271 272 279 284 287 282 281 283 287 295 297 297 298 297 296 296 297 295 292 287 282 281 282 287 286 286 285 281 278 281 281 287 283 283
258 262 263 265 266 271 271 262 262 266 265 274 278 283 282 279 280 285 291 294 297 300 298 303 307 305 302 303 303 302 298 294 287 281 280 280 282 284 283 286 288 283 285 288
261 264 266 268 276 274 264 259 258 263 267 272 277 279 279 277 280 286 289 293 297 300 309 310 307 302 307 309 304 290 285 228 206 212 246 259 276 296 302 304 304 302 297 297
257 264 268 270 268 267 263 256 262 267 267 269 271 276 277 279 280 283 287 290 289 299 303 304 309 314 315 312 305 190 160 164 186 211 230 242 270 282 301 299 297 305 309 307
264 269 266 265 267 267 261 266 262 260 262 266 270 272 276 278 280 283 284 279 282 294 293 307 315 320 322 311 281 183 234 202 165 130 123 3 3 330 340 353 352 349 343 336
257 262 265 266 264 261 257 254 254 261 265 265 266 273 275 277 278 280 271 281 284 286 282 297 310 299 272 245 226 197 154 89 65 38 6 347 342 348 337 331 324 322 331 339
255 260 263 259 252 256 260 259 258 256 257 262 269 271 269 273 279 275 271 253 272 262 277 272 289 293 268 161 138 94 66 40 23 20 14 348 332 322 321 322 322 324 330 332
256 254 255 248 249 248 263 251 244 248 254 260 262 261 267 276 266 250 247 245 233 246 232 213 195 217 192 130 70 16 317 322 355 339 325 327 328 322 320 321 325 328 329 327
253 251 242 242 242 247 244 244 243 240 247 245 252 258 266 250 217 231 236 210 221 206 225 242 215 171 92 275 290 297 304 298 294 307 320 324 325 326 324 322 322 322 320 318
238 239 239 241 240 228 229 233 232 242 233 242 248 248 233 210 214 205 206 216 209 225 243 208 205 246 256 272 295 301 290 282 294 309 318 321 318 316 316 313 312 316 319 319
247 239 234 226 232 234 226 225 230 236 229 238 243 246 228 212 208 203 195 215 236 204 201 233 236 254 267 283 283 279 281 291 301 306 310 311 313 314 316 317 318 319 319 319
233 223 221 228 226 225 226 226 228 233 234 235 244 245 220 221 227 239 233 210 201 217 237 240 248 257 273 275 282 284 285 286 288 294 299 302 305 309 313 315 316 315 318 319
231 234 229 225 223 224 223 224 228 236 239 235 240 235 225 228 237 226 207 216 226 234 244 243 249 262 266 274 283 286 289 292 294 297 296 300 304 307 310 313 317 318 317 317
230 229 226 224 223 223 226 228 229 234 232 231 233 226 219 224 222 213 219 227 239 241 242 249 258 263 267 276 284 289 293 295 295 298 303 304 305 308 311 313 314 313 315 316
238 235 236 233 230 229 228 229 232 235 231 230 231 223 218 223 224 226 229 232 243 249 251 255 262 269 274 283 287 292 294 296 300 304 305 306 309 310 311 312 312 313 314 316
249 248 246 245 243 241 240 238 234 231 230 226 227 225 225 227 230 232 236 238 242 252 260 261 265 274 281 284 288 292 298 304 306 308 309 309 310 312 313 313 313 313 316 318
264 263 261 257 253 248 245 241 240 236 230 229 228 227 230 235 232 233 236 241 246 251 258 268 271 276 280 285 288 296 302 305 307 310 310 310 310 313 313 313 314 316 318 318
274 271 268 264 259 251 245 242 238 234 232 231 231 229 231 240 235 233 237 243 248 253 258 266 274 279 283 285 292 298 302 303 307 310 310 310 312 313 313 314 314 317 317 317
273 278 279 272 262 252 242 235 231 229 230 229 231 231 236 241 245 237 238 245 250 256 261 267 274 280 285 289 293 298 300 304 309 309 309 311 313 313 313 315 316 316 317 317
287 296 299 280 248 227 225 226 224 225 225 225 228 232 238 240 248 247 243 246 252 259 265 270 275 281 288 291 295 298 304 309 309 309 310 311 312 314 315 316 316 317 318 319
324 5 4 314 215 205 213 220 211 214 219 223 225 227 235 239 247 253 253 254 257 259 266 273 279 284 288 292 296 303 308 309 308 310 311 313 314 315 316 317 318 319 320 321
120 30 359 322 149 190 196 213 209 215 221 223 224 222 225 233 243 250 255 256 259 265 268 274 280 286 291 296 302 307 307 307 309 311 313 314 315 316 317 318 320 322 321 321
128 359 327 161 200 190 205 206 206 212 216 218 222 226 225 236 246 254 258 261 266 268 273 278 286 291 294 300 305 307 307 308 311 313 314 315 317 318 319 321 322 322 321 322
243 289 283 235 222 223 221 215 217 224 229 233 236 241 245 248 254 259 262 264 268 274 281 286 288 293 300 304 306 306 309 311 313 313 315 317 319 320 321 322 322 322 324 324
273 282 283 263 241 236 238 239 234 231 235 239 241 244 249 255 257 260 264 268 276 282 286 289 294 300 303 304 306 309 312 313 313 315 317 319 320 322 322 322 323 325 325 326